Regional Weather Roundup
Issued by NWS

Home | Current Version | Previous Version | Graphics & Text | Print | Product List | Glossary On
Versions: 1 2 3 4 5 6 7 8 9 10 11 12 13 14 15 16 17 18 19 20 21 22 23 24 25 26 27 28 29 30 31 32 33 34 35 36 37 38 39 40 41 42 43 44 45 46 47 48 49 50
000
ASUS43 KBIS 250701
RWRND

NORTH DAKOTA REGIONAL WEATHER ROUNDUP
NATIONAL WEATHER SERVICE BISMARCK ND
100 AM CST SUN JAN 25 2015

NOTE: "FAIR" INDICATES FEW OR NO CLOUDS BELOW 12,000 FEET WITH NO
SIGNIFICANT WEATHER AND/OR OBSTRUCTIONS TO VISIBILITY.


NDZ001>003-009>011-017-250800-
NORTHWEST NORTH DAKOTA

CITY           SKY/WX    TMP DP  RH WIND       PRES   REMARKS
WILLISTON      CLOUDY    36  30  79 W12       29.93R
MINOT          CLOUDY    29  27  92 N5        29.84S FOG
MINOT AFB      CLOUDY    27  27 100 N2        29.85R
$$

NDZ018>021-031>035-040>046-250800-
SOUTHWEST NORTH DAKOTA

CITY           SKY/WX    TMP DP  RH WIND       PRES   REMARKS
BISMARCK       LGT RAIN  37  32  82 NW16G23   29.86R
DICKINSON      CLEAR     34  29  82 W16       29.89R
GARRISON         N/A     35  33  92 NW16      29.84R
HETTINGER ARPT CLEAR     33  29  85 NW13      29.93S
$$

NDZ004>008-012>016-024-026-027-054-250800-
NORTHEAST NORTH DAKOTA

CITY           SKY/WX    TMP DP  RH WIND       PRES   REMARKS
GRAND FORKS    CLOUDY    20  12  71 N12       29.90R WCI   8
GRND FRKS AFB  CLOUDY    18  14  84 N8        29.91R WCI   7
DEVILS LAKE    CLOUDY    18  12  79 N5        29.87R WCI  11
$$

NDZ022-023-025-028>030-036>039-047>053-250800-
SOUTHEAST NORTH DAKOTA

CITY           SKY/WX    TMP DP  RH WIND       PRES   REMARKS
FARGO          MOCLDY    26  20  77 N14       29.84R WCI  14
JAMESTOWN      LGT SNOW  24  21  88 N6        29.84R FOG     WCI  17
$$




USA.gov is the U.S. government's official web portal to all federal, state and local government web resources and services.